This is the latest recevied weather packets stored in our database for station/object 4S6DRJ-13. If no packets are shown the sender has not sent any weather packets the latest 10 day(s).
| Time | Temp. | Humidity | Pressure | Rain* | Wind** | Luminosity | Snow |
|---|---|---|---|---|---|---|---|
| 1788398015 | 27.22° C | 90% | 1009.4 hPa | 1.78 mm | 0 m/s | 83 W/m² | - |
| 1788397955 | 27.22° C | 90% | 1009.5 hPa | 1.78 mm | 0 m/s | 68 W/m² | - |
| 1788397910 | 27.22° C | 90% | 1009.3 hPa | 1.78 mm | 0 m/s | 60 W/m² | - |
| 1788397833 | 27.22° C | 90% | 1009.6 hPa | 1.78 mm | 0 m/s | 60 W/m² | - |
| 1788397771 | 27.22° C | 90% | 1009.5 hPa | 1.78 mm | 0.45 m/s, 230° | 64 W/m² | - |
| 1788397710 | 27.22° C | 90% | 1009.6 hPa | 1.78 mm | 0 m/s | 61 W/m² | - |
| 1788397649 | 27.22° C | 90% | 1009.5 hPa | 1.78 mm | 0 m/s | 59 W/m² | - |
| 1788397589 | 27.22° C | 90% | 1009.4 hPa | 1.78 mm | 0.89 m/s, 274° | 60 W/m² | - |
| 1788397528 | 27.22° C | 90% | 1009.5 hPa | 1.78 mm | 0 m/s | 57 W/m² | - |
| 1788397466 | 27.22° C | 90% | 1009.3 hPa | 1.78 mm | 0 m/s | 48 W/m² | - |
| 1788397406 | 26.67° C | 90% | 1009.5 hPa | 1.78 mm | 0 m/s | 44 W/m² | - |
| 1788397344 | 26.67° C | 90% | 1009.4 hPa | 1.78 mm | 0 m/s | 43 W/m² | - |
| 1788397283 | 26.67° C | 90% | 1009.5 hPa | 1.78 mm | 0.45 m/s, 230° | 39 W/m² | - |
| 1788397222 | 26.67° C | 90% | 1009.5 hPa | 1.78 mm | 0 m/s | 36 W/m² | - |
| 1788397161 | 26.67° C | 90% | 1009.7 hPa | 1.78 mm | 0 m/s | 34 W/m² | - |
| 1788397101 | 26.67° C | 90% | 1009.4 hPa | 1.78 mm | 0 m/s | 32 W/m² | - |
| 1788397039 | 26.67° C | 90% | 1009.4 hPa | 1.78 mm | 0 m/s | 32 W/m² | - |
| 1788396979 | 26.67° C | 90% | 1009.5 hPa | 1.78 mm | 0 m/s | 31 W/m² | - |
| 1788396917 | 26.67° C | 90% | 1009.2 hPa | 1.78 mm | 0.45 m/s, 220° | 30 W/m² | - |
| 1788396857 | 26.67° C | 90% | 1009.6 hPa | 1.78 mm | 0.89 m/s, 268° | 29 W/m² | - |
| 1788396795 | 26.67° C | 90% | 1009.3 hPa | 1.78 mm | 1.34 m/s, 242° | 29 W/m² | - |
| 1788396734 | 26.67° C | 90% | 1009.4 hPa | 1.78 mm | 0 m/s | 28 W/m² | - |
| 1788396673 | 26.67° C | 90% | 1009.4 hPa | 1.78 mm | 0.89 m/s, 296° | 28 W/m² | - |
| 1788396612 | 26.67° C | 90% | 1009.3 hPa | 1.78 mm | 0.45 m/s, 251° | 27 W/m² | - |
| 1788396552 | 26.67° C | 90% | 1009.3 hPa | 1.78 mm | 0 m/s | 25 W/m² | - |
* Rain latest hour (hover to see other rain measurements)
** Current wind speed in m/s (hover to see current wind gust speed)